Lapse_Rate
9.7 9.5 9.5 9.2 9.5 9.8 9.8 9.9 9.8 10.0 10.0 9.9 10.0 9.9 9.9 9.9 9.9 9.8 9.8 9.8 9.7 9.7 9.8 9.7 9.6 9.6 9.9 10.0 10.0 9.9 9.8 9.7 9.1 9.5 9.8 9.6 9.6 9.7 9.9 9.6 9.5 9.3 9.7
9.7 9.6 9.6 9.7 9.7 9.8 9.8 9.9 10.0 9.9 9.9 10.0 10.0 9.9 9.9 9.8 9.8 9.7 9.7 9.8 9.6 9.6 9.6 9.6 9.6 10.0 9.5 9.6 9.8 9.2 9.3 9.5 9.4 8.7 9.3 9.6 9.4 9.6 9.6 9.7 10.0 9.8 9.9
9.6 9.6 9.6 9.7 9.6 9.6 9.7 9.8 10.0 10.0 10.0 10.0 10.0 9.9 9.9 9.8 9.7 9.8 9.8 9.7 9.7 9.7 9.7 9.6 9.6 9.6 9.4 9.7 9.7 9.6 9.5 9.4 9.3 9.2 8.7 9.5 9.6 9.5 9.7 9.7 9.7 9.7 9.1
9.7 9.5 9.5 9.6 9.6 9.7 9.8 9.8 9.9 10.0 9.9 9.9 9.9 9.9 9.9 10.0 9.9 9.9 9.9 9.8 9.7 9.9 9.7 9.8 9.7 9.6 9.3 9.4 9.5 9.4 9.4 9.4 8.7 9.1 8.7 9.7 9.4 9.7 9.2 9.1 9.5 9.7 8.7
9.6 9.5 9.4 9.7 9.8 9.8 9.7 9.8 9.8 9.8 9.9 10.0 9.9 9.9 9.9 10.0 8.7 7.4 8.8 9.8 9.7 9.7 9.7 9.9 9.7 9.0 8.4 8.2 9.6 9.5 9.4 9.5 9.6 9.1 9.1 8.9 9.0 9.1 8.6 9.0 9.3 9.6 9.3
9.5 9.4 9.6 9.7 9.7 9.7 9.7 9.8 9.7 9.7 9.7 9.9 9.8 9.8 9.7 10.0 3.9 3.5 4.8 9.6 9.8 9.6 9.6 9.7 9.8 9.7 9.7 9.0 8.8 8.4 8.4 9.4 9.2 9.5 9.2 9.0 8.7 9.0 9.1 8.9 9.1 9.1 9.0
9.5 9.6 9.6 9.6 9.6 9.6 9.8 9.7 9.5 9.5 9.7 9.7 9.7 9.8 9.7 9.7 3.4 2.9 3.8 9.9 9.8 9.7 9.7 9.8 9.9 10.3 9.8 9.4 9.1 8.7 9.0 8.1 6.7 9.0 8.9 8.8 8.8 8.6 9.1 8.8 9.0 9.2 9.4
9.5 9.5 9.6 9.6 9.5 9.6 9.6 9.4 9.5 9.6 9.5 9.5 9.5 9.7 9.7 9.3 3.4 2.8 3.4 9.8 9.8 9.7 9.8 9.7 9.8 9.8 8.9 7.2 8.8 9.7 9.8 9.7 9.6 10.1 9.6 9.6 9.7 9.7 9.7 9.6 9.5 9.3 9.5
9.4 9.5 9.6 9.5 9.5 9.5 9.3 9.3 9.1 9.4 9.5 9.5 9.6 9.6 9.6 9.7 3.3 2.7 4.5 9.7 9.7 9.6 9.9 9.9 9.8 9.8 5.1 4.2 8.7 9.5 9.6 9.7 9.8 9.0 7.5 7.4 6.6 6.0 7.0 9.3 8.9 8.4 8.4
9.5 9.6 9.7 9.7 9.6 9.4 8.9 8.7 8.3 9.5 9.3 9.8 9.5 9.7 7.2 9.7 3.6 2.7 4.4 10.1 9.6 9.9 9.7 9.8 4.8 7.1 4.6 4.2 8.4 9.6 9.4 9.5 9.6 9.7 9.9 9.4 8.3 8.9 7.1 8.6 8.1 7.0 7.3
9.7 9.7 9.7 9.7 9.5 9.1 8.9 8.6 8.6 9.1 9.5 9.5 9.4 9.6 9.7 9.1 8.7 3.7 2.5 8.9 10.0 9.9 9.9 9.9 10.2 4.7 4.3 4.3 4.2 9.6 9.1 7.6 9.4 9.7 9.4 9.5 9.7 9.3 9.3 8.5 8.1 7.0 6.8
9.7 9.6 9.7 9.7 9.8 9.7 9.1 9.4 9.0 8.4 9.3 9.3 9.2 9.4 9.8 9.8 7.3 4.9 2.5 2.8 5.0 9.5 9.7 10.1 10.0 4.6 4.6 4.1 5.7 4.7 4.7 5.2 10.1 10.0 9.5 8.9 9.0 8.9 8.7 7.8 7.3 7.4 7.9
9.6 9.5 9.6 9.6 9.8 9.6 9.3 9.4 9.5 9.4 9.5 9.3 9.5 9.5 9.5 9.9 9.8 3.5 3.4 3.1 3.3 8.2 10.2 8.5 4.8 4.6 4.4 6.2 6.9 5.0 4.6 9.8 9.5 9.2 8.7 8.0 6.4 6.8 7.3 7.0 7.3 8.7 7.7
9.4 9.5 9.6 9.5 9.0 9.6 9.8 9.8 9.7 9.6 9.6 9.5 9.4 9.4 9.6 9.6 9.6 10.0 10.2 10.1 7.3 7.6 9.3 9.7 9.0 6.4 5.2 7.2 9.2 9.6 9.9 9.5 8.7 7.5 6.8 6.4 6.1 6.1 6.9 6.6 7.1 7.8 8.1
9.4 9.5 9.5 9.7 9.4 9.5 9.6 9.7 9.7 9.7 8.9 9.4 9.7 9.7 9.5 9.5 8.7 3.7 4.3 8.2 8.9 7.7 4.8 9.9 9.7 9.8 9.4 9.6 9.8 10.0 9.7 9.4 6.6 6.5 6.3 6.0 5.7 6.1 7.0 7.2 6.6 6.4 6.6
9.4 9.6 9.3 9.7 9.6 9.7 9.6 9.6 2.9 2.3 1.4 0.1 -0.4 1.9 8.9 5.9 2.4 1.3 0.2 0.0 0.5 0.6 8.3 9.3 9.0 9.2 9.2 9.4 9.5 9.6 9.5 6.3 5.7 5.5 5.5 5.5 5.7 6.6 6.1 6.3 6.1 6.2 6.9
9.4 9.4 9.7 8.1 9.6 9.5 9.6 9.5 9.3 6.5 0.3 -0.5 -1.1 -1.3 -1.7 0.3 -0.9 -0.7 -0.2 0.1 0.9 2.3 9.2 9.2 9.4 9.1 9.4 9.4 9.4 9.6 9.2 5.5 5.0 5.6 5.1 5.3 5.4 5.8 5.5 5.9 6.1 6.5 7.4
9.5 4.7 9.6 9.7 9.7 9.7 9.6 9.6 9.7 9.4 9.4 9.6 2.7 1.6 -0.1 -1.1 -1.2 -1.0 0.0 1.3 9.0 5.6 9.9 9.5 9.6 9.3 9.4 9.6 9.6 9.6 8.2 5.0 4.7 4.7 5.5 5.2 5.3 6.0 6.4 6.9 7.0 7.0 7.4
9.7 9.8 9.8 9.8 9.9 8.5 9.7 9.8 9.7 9.6 9.5 9.6 9.9 5.9 4.2 1.2 0.4 0.5 1.7 9.5 9.5 9.6 9.4 9.3 9.6 9.5 9.4 9.6 9.7 9.9 6.5 4.8 4.3 4.7 4.9 5.5 5.6 5.9 6.5 6.8 7.2 6.3 6.4
9.7 7.4 6.4 9.7 9.9 9.8 9.8 9.7 9.7 9.6 9.6 9.7 9.7 9.5 9.9 9.8 9.6 9.3 9.6 9.9 9.4 9.5 9.9 9.5 9.6 9.6 9.7 9.9 10.0 10.0 5.8 4.6 4.3 4.4 4.6 5.1 6.0 6.1 6.5 6.2 6.4 6.0 5.9
9.8 9.8 9.8 9.8 9.7 9.7 9.7 9.7 9.7 9.7 9.7 9.7 9.7 7.3 -1.1 8.8 9.7 9.8 9.8 9.6 9.9 10.1 9.7 9.9 10.1 9.8 10.2 10.1 10.2 8.8 5.3 4.5 4.0 4.1 4.2 4.1 5.0 6.3 6.2 6.5 6.4 5.6 5.9
10.0 9.9 9.9 9.7 9.8 9.7 9.7 9.8 9.8 9.8 9.7 9.8 9.8 8.9 5.8 9.9 9.9 9.8 9.9 9.8 9.8 9.8 9.9 10.0 10.2 10.1 10.3 10.3 9.9 6.3 4.6 3.8 3.3 3.2 2.9 3.2 4.5 5.1 5.4 5.4 6.1 6.5 6.5
9.9 9.8 9.8 9.8 9.7 7.6 9.5 9.8 9.8 9.8 9.8 9.8 9.9 10.0 9.9 10.0 9.9 9.5 9.9 10.0 10.1 10.3 9.9 10.1 10.2 10.3 10.1 9.9 8.3 5.4 3.3 2.7 2.3 1.7 2.1 2.9 3.5 5.1 5.1 5.4 5.5 6.5 8.1
9.9 9.7 9.7 9.7 9.7 9.7 9.7 9.7 9.7 8.5 9.7 9.9 9.9 10.0 10.0 9.9 10.0 9.7 9.8 9.9 10.2 10.0 9.9 9.7 9.9 10.3 10.1 8.9 6.2 3.5 2.1 0.9 0.4 1.4 1.8 2.3 4.3 6.5 6.5 6.5 7.7 7.7 8.5
9.9 9.7 9.7 9.6 9.7 9.7 9.7 9.7 9.7 9.7 9.9 9.9 9.9 10.0 10.1 10.0 10.1 9.9 9.9 9.9 10.2 10.0 9.9 9.8 9.7 9.8 9.7 6.8 4.0 1.6 0.5 -0.3 -0.2 -0.3 1.4 3.6 5.2 7.1 8.5 7.7 8.4 9.0 9.2
9.8 9.7 9.7 9.8 9.8 9.7 9.6 9.6 9.6 9.8 9.8 9.9 10.0 10.0 10.1 10.0 9.8 8.9 9.4 9.9 10.3 9.9 9.9 9.8 9.8 9.8 9.0 4.8 1.8 -0.2 -0.2 -0.6 -0.0 -0.1 2.0 7.9 8.7 9.4 9.3 9.4 9.4 9.4 9.2
Wind_Speed
5 5 5 5 3 6 6 7 8 8 9 9 8 7 8 8 9 8 7 9 9 9 9 10 10 9 9 8 7 7 7 8 10 10 10 11 11 10 11 14 14 13 13
3 4 4 4 5 6 6 6 7 8 9 8 7 7 8 7 6 7 7 8 9 9 10 10 11 9 11 8 10 9 5 7 7 11 9 8 6 8 8 11 9 14 14
2 3 3 4 4 4 5 5 5 7 8 9 7 8 7 7 6 6 7 9 10 10 10 10 11 11 11 10 11 10 10 8 9 9 9 8 8 4 10 10 8 8 14
3 2 3 3 4 4 4 4 4 5 7 9 8 7 8 9 10 11 10 10 10 10 11 10 10 12 12 12 12 13 11 12 9 7 7 9 7 8 7 9 11 7 6
4 2 2 2 2 4 5 5 4 4 6 7 8 7 7 7 8 10 11 11 10 11 11 11 12 8 13 11 10 12 13 12 12 11 9 9 9 9 8 6 11 11 8
4 2 1 2 3 4 5 5 3 3 4 6 8 8 8 7 10 12 11 9 10 11 11 12 13 10 13 16 15 17 15 13 13 11 12 12 12 12 9 8 10 12 12
4 1 1 3 4 4 4 5 5 4 3 5 6 6 7 8 11 12 13 8 9 9 11 11 13 12 13 16 19 18 13 9 13 8 13 13 14 11 12 10 13 13 13
4 1 2 3 3 2 3 5 4 4 4 4 5 5 6 6 9 11 14 8 10 9 9 10 12 14 13 14 17 16 15 14 9 10 12 14 14 14 14 13 15 16 12
4 1 2 2 2 4 5 4 4 4 4 3 3 4 5 6 6 9 12 11 10 10 8 10 8 13 12 13 16 17 16 14 13 12 14 17 17 13 11 9 9 10 10
4 3 1 3 3 5 4 4 4 3 4 3 2 2 1 6 6 6 9 10 10 10 9 9 8 11 11 12 14 15 16 16 16 16 13 8 5 6 9 7 6 7 7
4 3 2 2 1 1 1 1 2 3 3 3 4 4 5 4 4 1 5 9 8 10 9 9 9 11 11 13 12 13 15 14 16 14 9 9 10 9 7 6 8 7 6
5 4 4 3 3 2 3 4 4 4 5 4 4 6 3 3 7 6 5 7 7 9 11 9 10 10 13 17 12 9 14 14 10 11 9 9 10 10 9 9 9 9 11
6 5 4 3 4 4 5 5 6 5 6 6 5 5 5 5 5 13 12 11 11 8 8 9 12 15 17 13 7 11 12 11 12 12 11 8 7 10 9 8 8 9 11
6 4 4 5 3 4 5 4 5 5 5 6 7 6 6 7 5 6 8 7 7 7 7 11 12 11 14 10 12 11 11 11 12 10 8 7 7 7 7 6 6 7 7
5 4 4 5 5 4 5 5 6 6 5 7 8 8 8 8 5 6 4 8 9 9 10 10 11 11 9 12 14 12 11 13 10 9 9 8 7 6 7 6 6 6 6
5 5 3 4 3 4 5 5 10 11 9 9 11 9 9 9 8 6 6 7 12 11 7 9 9 10 10 10 12 12 11 12 8 8 7 6 6 6 7 7 5 5 6
5 2 4 5 4 4 5 6 7 4 14 14 13 12 13 16 11 13 7 13 13 4 5 10 10 10 10 10 11 12 13 8 9 6 6 6 6 6 7 5 5 6 6
5 1 6 5 4 5 5 6 6 5 7 9 7 13 12 9 8 6 10 8 8 3 10 10 10 7 8 11 11 12 11 8 6 7 7 6 5 5 6 7 7 6 6
6 6 5 5 6 5 7 6 6 6 7 9 8 1 8 8 8 9 2 8 9 8 8 9 8 9 9 11 12 11 9 9 8 7 7 7 6 5 6 6 6 6 6
6 6 6 7 6 6 6 6 6 7 8 9 9 10 10 10 7 6 5 7 7 8 8 9 8 9 11 12 12 11 8 9 8 7 7 7 7 6 5 6 5 6 5
5 4 6 7 7 5 5 6 7 8 8 8 8 7 2 8 8 8 9 9 8 9 10 9 10 11 11 12 12 11 10 9 8 7 7 7 7 6 6 6 5 5 5
5 5 5 5 5 5 6 6 7 8 8 8 8 6 3 6 8 8 9 9 8 6 8 10 10 10 11 12 12 10 10 9 8 7 7 7 7 6 5 5 6 5 4
5 6 5 4 4 2 4 6 6 8 8 8 8 7 7 8 9 8 7 6 8 8 11 10 10 11 16 18 18 11 8 8 8 7 7 7 7 6 6 5 4 4 4
5 4 4 3 4 4 6 6 6 6 7 7 7 7 8 9 8 8 7 7 6 9 12 13 14 15 16 19 18 16 12 14 13 11 10 6 7 7 3 5 5 5 4
3 2 1 3 5 6 5 6 6 6 6 7 6 7 7 6 7 8 7 6 7 8 12 15 17 19 21 23 21 21 20 19 15 14 9 7 7 8 7 5 5 6 10
2 3 4 5 5 6 6 5 6 6 6 6 6 6 7 6 7 7 7 8 8 9 14 15 19 21 24 20 21 23 21 20 17 19 11 7 7 8 7 9 11 8 10
Wind_Direction
52 37 46 57 62 29 34 35 33 35 27 27 26 20 18 21 32 33 35 31 30 24 16 11 13 8 356 0 336 353 329 344 323 340 326 354 327 338 333 327 316 316 304
60 46 60 51 26 35 35 38 39 38 31 23 17 17 18 14 17 18 15 14 12 5 1 356 -0 356 347 4 339 358 341 315 321 316 331 312 337 319 329 317 317 319 324
93 100 71 53 42 39 36 34 40 31 32 25 17 22 17 17 13 11 4 358 355 357 359 349 347 346 344 345 333 337 332 331 320 310 310 314 323 324 311 309 320 341 345
141 100 70 42 5 5 350 349 13 20 22 24 22 25 21 33 20 1 358 353 352 353 351 343 348 358 355 344 334 327 333 323 296 295 301 302 299 342 341 331 319 337 336
153 142 60 4 353 2 0 344 343 357 23 19 20 23 21 38 23 355 348 348 352 346 348 352 0 360 358 343 334 338 322 325 318 311 305 310 311 333 318 325 315 324 325
169 151 301 324 342 358 5 8 349 2 26 17 24 30 30 39 10 0 348 335 353 5 358 356 341 2 354 350 334 316 296 305 312 311 307 313 316 318 325 329 317 311 316
171 162 318 318 321 333 347 7 18 16 26 22 22 23 20 29 14 354 343 350 1 5 0 358 347 357 2 343 336 315 322 296 237 313 303 309 315 312 323 317 309 311 307
170 156 311 322 329 316 0 20 22 36 28 19 16 14 10 50 22 354 332 344 19 360 355 1 353 352 9 343 331 332 332 328 343 331 317 314 316 320 308 305 305 292 295
162 118 357 24 59 66 51 38 35 22 14 9 14 5 10 4 43 4 340 327 14 342 351 10 353 354 360 334 331 333 330 328 333 308 258 269 261 253 271 307 318 312 308
160 122 113 102 87 77 57 51 47 15 48 343 354 357 27 333 80 10 345 329 357 337 349 1 111 16 346 331 337 333 337 329 324 316 306 350 306 305 212 289 309 299 299
168 161 172 157 136 87 333 346 1 356 342 345 333 321 299 314 330 30 332 312 346 330 335 346 0 25 325 300 294 334 325 310 308 295 346 335 331 320 322 330 317 301 298
181 192 205 222 253 260 278 287 283 284 279 299 286 283 327 293 222 182 236 263 311 311 320 342 341 326 290 284 289 316 280 280 327 330 340 333 336 322 330 330 303 294 293
187 207 231 249 256 261 273 290 279 247 268 290 311 319 322 343 309 192 208 223 232 270 314 323 274 268 266 291 295 275 276 356 346 338 338 336 319 309 313 309 303 287 300
194 211 220 243 280 263 293 281 290 294 301 305 310 311 319 317 313 358 340 316 261 279 6 318 308 288 296 314 343 347 359 13 355 337 324 321 312 310 311 313 313 316 315
193 206 231 235 238 277 260 307 309 298 310 314 319 323 314 312 3 44 355 323 326 329 322 308 329 344 335 343 341 344 8 4 345 337 328 326 319 311 320 326 315 317 302
202 213 239 283 262 276 300 307 215 241 259 247 258 256 292 293 330 313 252 250 263 265 289 326 322 345 342 342 338 337 11 355 336 327 322 318 316 317 328 321 323 308 302
233 268 254 245 264 294 308 310 312 261 231 236 236 233 224 268 289 300 323 287 275 242 303 338 331 345 344 341 330 346 12 343 329 322 317 319 320 320 324 321 313 316 319
226 155 271 265 286 289 316 316 306 313 327 324 233 228 215 227 248 260 260 281 328 273 349 351 339 340 347 326 343 352 8 336 329 319 319 318 315 313 316 328 335 333 336
231 247 240 271 277 309 289 304 304 325 329 327 332 270 180 209 208 226 234 321 339 1 331 5 348 352 330 330 350 354 6 333 322 324 325 318 311 310 319 328 324 320 320
234 253 278 289 290 301 315 314 326 333 329 340 341 25 355 324 359 335 7 356 23 348 4 9 345 335 325 350 349 356 349 330 326 321 319 321 319 319 325 318 324 334 336
239 236 218 274 277 330 318 327 332 333 344 350 353 62 355 314 348 359 354 20 14 356 11 349 348 342 345 352 347 9 335 324 319 320 318 316 315 318 327 330 334 313 316
245 269 284 294 323 326 358 328 348 350 355 354 358 33 297 333 6 12 22 22 16 6 359 359 341 348 352 353 3 349 329 322 321 324 316 314 313 305 310 315 325 333 333
253 265 276 296 342 324 318 359 15 0 353 7 2 3 2 4 21 20 27 14 5 6 7 347 349 353 357 355 2 343 327 322 319 312 305 310 306 313 322 326 318 320 318
240 264 302 357 26 1 11 14 13 35 7 12 14 7 25 9 349 29 21 33 350 5 2 357 359 357 357 3 348 341 333 326 315 306 310 299 310 333 324 318 321 315 323
287 337 2 42 24 21 25 23 24 19 20 17 13 9 26 23 345 33 19 9 11 2 6 359 3 356 6 358 352 347 339 330 327 322 316 311 318 331 335 319 357 15 25
143 88 65 48 39 33 33 31 28 21 22 20 16 19 22 30 43 15 8 13 2 1 4 2 4 1 9 358 349 341 339 337 339 338 331 328 353 18 2 32 27 33 40